Weather History for KPUB - September, 2013

Change the Weather History Date:

Monday, September 9, 2013

  Actual Average Record
Temperature  
Mean Temperature 77 °F 68 °F  
Max Temperature 92 °F 84 °F 98 °F (1979)
Min Temperature 62 °F 51 °F 32 °F (2001)
Degree Days  
Heating Degree Days 0 1  
Month to date heating degree days 0 9  
Since 1 July heating degree days 0 14  
Cooling Degree Days 12 4  
Month to date cooling degree days 112 44  
Year to date cooling degree days 1172 855  
Growing Degree Days 26 (Base 50)    
Moisture  
Dew Point 47 °F    
Average Humidity 39    
Maximum Humidity 61    
Minimum Humidity 16    
Precipitation  
Precipitation 0.00 in 0.03 in 1.11 in (1919)
Month to date precipitation T 0.31  
Year to date precipitation 7.80 10.54  
Snow  
Snow 0.00 in 0.00 in 0.00 in (2002)
Month to date snowfall 0.0 0.0  
Since 1 July snowfall T 0.0  
Since 1 September snowfall 0.0 0.0  
Snow Depth 0.00 in    
Sea Level Pressure  
Sea Level Pressure 29.71 in    
Wind  
Wind Speed 10 mph (East)    
Max Wind Speed 43 mph    
Max Gust Speed 51 mph    
Visibility 10 miles    
Events      
T = Trace of Precipitation, MM = Missing Value Source: NWS Daily Summary

Daily Weather History Graph

Daily Weather History Graph

Search for Another Location

Airport or City:

Trip Planner

Search our weather history database for the weather conditions in past years. The results will help you decide how hot, cold, wet, or windy it might be!

Date:

Astronomy

Sep. 09, 2013 Rise Set
Actual Time 6:34 AM MDT 7:14 PM MDT
Civil Twilight 6:08 AM MDT 7:41 PM MDT
Nautical Twilight 5:36 AM MDT 8:13 PM MDT
Astronomical Twilight 5:04 AM MDT 8:45 PM MDT
Moon 10:54 AM MDT (9/9) 9:38 PM MDT (9/9)
Length of Visible Light 13h 33m
Length of Day
12h 40m
Waxing Crescent, 19% of the Moon is Illuminated
Sep 9
Waxing Crescent
Sep 12
First Quarter
Sep 19
Full
Sep 26
Last Quarter
Oct 4
New

Hourly Weather History & Observations

Time (MDT) Temp. Dew Point Humidity Pressure Visibility Wind Dir Wind Speed Gust Speed Precip Events Conditions
12:53 AM 73.9 °F 44.1 °F 34% 29.66 in 10.0 mi Calm Calm - N/A   Clear
1:53 AM 66.0 °F 43.0 °F 43% 29.68 in 10.0 mi West 5.8 mph - N/A   Clear
2:53 AM 66.9 °F 42.1 °F 40% 29.68 in 10.0 mi West 3.5 mph - N/A   Clear
3:53 AM 64.9 °F 43.0 °F 45% 29.69 in 10.0 mi Calm Calm - N/A   Clear
4:53 AM 66.0 °F 44.1 °F 45% 29.70 in 10.0 mi Calm Calm - N/A   Clear
5:53 AM 63.0 °F 45.0 °F 52% 29.72 in 10.0 mi Calm Calm - N/A   Clear
6:53 AM 64.9 °F 46.0 °F 50% 29.74 in 10.0 mi Calm Calm - N/A   Clear
7:53 AM 70.0 °F 50.0 °F 49% 29.76 in 10.0 mi Variable 3.5 mph - N/A   Clear
8:53 AM 77.0 °F 50.0 °F 39% 29.75 in 10.0 mi North 9.2 mph - N/A   Clear
9:53 AM 82.0 °F 51.1 °F 34% 29.75 in 10.0 mi North 13.8 mph - N/A   Clear
10:53 AM 86.0 °F 48.0 °F 27% 29.73 in 10.0 mi North 6.9 mph - N/A   Clear
11:53 AM 86.0 °F 46.9 °F 26% 29.72 in 10.0 mi SW 3.5 mph - N/A   Clear
12:53 PM 88.0 °F 46.9 °F 24% 29.70 in 10.0 mi South 5.8 mph - N/A   Clear
1:53 PM 89.1 °F 46.0 °F 22% 29.69 in 10.0 mi South 10.4 mph - N/A   Clear
2:53 PM 90.0 °F 45.0 °F 21% 29.65 in 10.0 mi SE 9.2 mph - N/A   Clear
3:53 PM 90.0 °F 42.1 °F 19% 29.63 in 10.0 mi SSE 9.2 mph - N/A   Clear
4:53 PM 91.0 °F 42.1 °F 18% 29.62 in 10.0 mi SE 11.5 mph - N/A   Clear
5:53 PM 91.0 °F 39.9 °F 17% 29.62 in 10.0 mi SE 10.4 mph - N/A   Clear
6:53 PM 87.1 °F 39.0 °F 18% 29.63 in 10.0 mi South 10.4 mph - N/A   Clear
7:53 PM 82.0 °F 42.1 °F 24% 29.66 in 10.0 mi South 8.1 mph - N/A   Clear
8:53 PM 75.0 °F 53.1 °F 46% 29.72 in 10.0 mi North 23.0 mph 29.9 mph N/A   Clear
9:08 PM 73.4 °F 53.6 °F 50% 29.94 in 5.0 mi North 28.8 mph 50.6 mph N/A   Haze
9:53 PM 70.0 °F 55.0 °F 59% 29.76 in 10.0 mi NNE 27.6 mph 44.9 mph N/A   Partly Cloudy
10:53 PM 68.0 °F 53.1 °F 59% 29.78 in 10.0 mi NNE 25.3 mph 34.5 mph N/A   Clear
11:53 PM 68.0 °F 54.0 °F 61% 29.80 in 10.0 mi North 21.9 mph 32.2 mph N/A   Clear